Time,TemperatureF,DewpointF,PressureIn,WindDirection,WindDirectionDegrees,WindSpeedMPH,WindSpeedGustMPH,Humidity,HourlyPrecipIn,Conditions,Clouds,dailyrainin,SoftwareType,DateUTC
2013-01-24 00:00:00,26.2,16.4,30.09,WNW,296,0.0,0.0,66,0.00,,,0.00,Wunderground v.1.15,2013-01-24 05:00:00,
2013-01-24 00:05:00,26.2,16.4,30.08,WNW,296,0.0,0.0,66,0.00,,,0.00,Wunderground v.1.15,2013-01-24 05:05:00,
2013-01-24 00:10:00,26.1,16.3,30.08,WNW,296,0.0,0.0,66,0.00,,,0.00,Wunderground v.1.15,2013-01-24 05:10:00,
2013-01-24 00:15:00,26.1,16.6,30.08,WNW,296,0.0,0.0,67,0.00,,,0.00,Wunderground v.1.15,2013-01-24 05:15:00,
2013-01-24 00:20:00,26.0,15.8,30.08,WNW,296,0.0,0.0,65,0.00,,,0.00,Wunderground v.1.15,2013-01-24 05:20:00,
2013-01-24 00:25:00,25.9,15.4,30.08,WNW,296,0.0,0.0,64,0.00,,,0.00,Wunderground v.1.15,2013-01-24 05:25:00,
2013-01-24 00:35:00,25.8,15.3,30.07,WNW,296,0.0,0.0,64,0.00,,,0.00,Wunderground v.1.15,2013-01-24 05:35:00,
2013-01-24 00:40:00,25.7,14.8,30.07,WNW,296,0.0,0.0,63,0.00,,,0.00,Wunderground v.1.15,2013-01-24 05:40:00,
2013-01-24 00:45:00,25.8,14.9,30.07,WNW,296,0.0,0.0,63,0.00,,,0.00,Wunderground v.1.15,2013-01-24 05:45:00,
2013-01-24 00:50:00,25.8,14.6,30.07,WNW,296,0.0,0.0,62,0.00,,,0.00,Wunderground v.1.15,2013-01-24 05:50:00,
2013-01-24 00:55:00,25.8,14.9,30.06,WNW,296,0.0,1.0,63,0.00,,,0.00,Wunderground v.1.15,2013-01-24 05:55:00,
2013-01-24 01:05:00,26.0,14.0,30.06,WNW,296,0.0,0.0,60,0.00,,,0.00,Wunderground v.1.15,2013-01-24 06:05:00,
2013-01-24 01:10:00,26.3,13.9,30.06,WNW,296,0.0,0.0,59,0.00,,,0.00,Wunderground v.1.15,2013-01-24 06:10:00,
2013-01-24 01:15:00,26.7,13.1,30.06,WNW,296,0.0,1.0,56,0.00,,,0.00,Wunderground v.1.15,2013-01-24 06:15:00,
2013-01-24 01:20:00,27.5,15.0,30.06,WNW,294,0.0,0.0,59,0.00,,,0.00,Wunderground v.1.15,2013-01-24 06:20:00,
2013-01-24 01:25:00,28.0,15.9,30.05,WNW,294,0.0,0.0,60,0.00,,,0.00,Wunderground v.1.15,2013-01-24 06:25:00,
2013-01-24 01:30:00,28.6,16.8,30.05,WNW,294,0.0,0.0,61,0.00,,,0.00,Wunderground v.1.15,2013-01-24 06:30:00,
2013-01-24 01:40:00,28.7,19.5,30.05,WNW,294,0.0,0.0,68,0.00,,,0.00,Wunderground v.1.15,2013-01-24 06:40:00,
2013-01-24 01:45:00,28.4,18.8,30.04,WNW,294,1.0,1.0,67,0.00,,,0.00,Wunderground v.1.15,2013-01-24 06:45:00,
2013-01-24 01:50:00,28.1,18.9,30.04,WNW,294,1.0,1.0,68,0.00,,,0.00,Wunderground v.1.15,2013-01-24 06:50:00,
2013-01-24 01:55:00,27.8,18.9,30.04,WNW,294,1.0,1.0,69,0.00,,,0.00,Wunderground v.1.15,2013-01-24 06:55:00,
2013-01-24 02:00:00,27.7,18.5,30.04,WNW,294,0.0,1.0,68,0.00,,,0.00,Wunderground v.1.15,2013-01-24 07:00:00,
2013-01-24 02:10:00,27.5,18.0,30.04,WNW,294,0.0,0.0,67,0.00,,,0.00,Wunderground v.1.15,2013-01-24 07:10:00,
2013-01-24 02:15:00,27.4,17.9,30.04,WNW,294,0.0,1.0,67,0.00,,,0.00,Wunderground v.1.15,2013-01-24 07:15:00,
2013-01-24 02:20:00,27.3,17.8,30.03,WNW,294,0.0,0.0,67,0.00,,,0.00,Wunderground v.1.15,2013-01-24 07:20:00,
2013-01-24 02:25:00,27.2,17.3,30.04,WNW,294,0.0,0.0,66,0.00,,,0.00,Wunderground v.1.15,2013-01-24 07:25:00,
2013-01-24 02:30:00,27.3,16.4,30.04,WNW,294,0.0,0.0,63,0.00,,,0.00,Wunderground v.1.15,2013-01-24 07:30:00,
2013-01-24 02:35:00,27.4,15.7,30.03,WNW,294,0.0,0.0,61,0.00,,,0.00,Wunderground v.1.15,2013-01-24 07:35:00,
2013-01-24 02:45:00,28.4,14.7,30.03,WNW,294,0.0,3.0,56,0.00,,,0.00,Wunderground v.1.15,2013-01-24 07:45:00,
2013-01-24 02:50:00,29.5,18.1,30.03,WNW,294,1.0,1.0,62,0.00,,,0.00,Wunderground v.1.15,2013-01-24 07:50:00,
2013-01-24 02:55:00,30.5,19.8,30.03,WNW,294,0.0,1.0,64,0.00,,,0.00,Wunderground v.1.15,2013-01-24 07:55:00,
2013-01-24 03:00:00,31.4,21.7,30.03,WNW,294,0.0,0.0,67,0.00,,,0.00,Wunderground v.1.15,2013-01-24 08:00:00,
2013-01-24 03:10:00,33.2,23.8,30.03,West,267,0.0,0.0,68,0.00,,,0.00,Wunderground v.1.15,2013-01-24 08:10:00,
2013-01-24 03:15:00,33.9,25.1,30.03,West,267,0.0,0.0,70,0.00,,,0.00,Wunderground v.1.15,2013-01-24 08:15:00,
2013-01-24 03:20:00,34.5,26.1,30.03,SSW,199,0.0,0.0,71,0.00,,,0.00,Wunderground v.1.15,2013-01-24 08:20:00,
2013-01-24 03:25:00,34.8,26.4,30.02,SSW,199,0.0,0.0,71,0.00,,,0.00,Wunderground v.1.15,2013-01-24 08:25:00,
2013-01-24 03:30:00,35.0,26.5,30.03,SSW,199,0.0,0.0,71,0.00,,,0.00,Wunderground v.1.15,2013-01-24 08:30:00,
2013-01-24 03:35:00,35.1,26.6,30.02,SSW,199,0.0,0.0,71,0.00,,,0.00,Wunderground v.1.15,2013-01-24 08:35:00,
2013-01-24 03:40:00,35.3,26.8,30.02,SSW,199,0.0,0.0,71,0.00,,,0.00,Wunderground v.1.15,2013-01-24 08:40:00,
2013-01-24 03:50:00,35.9,27.4,30.02,South,187,0.0,0.0,71,0.00,,,0.00,Wunderground v.1.15,2013-01-24 08:50:00,
2013-01-24 03:55:00,36.2,27.7,30.01,NNE,25,1.0,3.0,71,0.00,,,0.00,Wunderground v.1.15,2013-01-24 08:55:00,
2013-01-24 04:00:00,36.8,28.3,30.01,SE,142,1.0,1.0,71,0.00,,,0.00,Wunderground v.1.15,2013-01-24 09:00:00,
2013-01-24 04:05:00,37.0,28.5,30.01,ESE,118,1.0,1.0,71,0.00,,,0.00,Wunderground v.1.15,2013-01-24 09:05:00,
2013-01-24 04:10:00,37.2,28.7,30.01,ESE,118,0.0,0.0,71,0.00,,,0.00,Wunderground v.1.15,2013-01-24 09:10:00,
2013-01-24 04:15:00,37.6,29.0,30.01,West,273,1.0,3.0,71,0.00,,,0.00,Wunderground v.1.15,2013-01-24 09:15:00,
2013-01-24 04:20:00,37.9,29.3,30.01,NW,317,1.0,1.0,71,0.00,,,0.00,Wunderground v.1.15,2013-01-24 09:20:00,
2013-01-24 04:25:00,37.9,29.3,30.01,NNE,17,1.0,2.0,71,0.00,,,0.00,Wunderground v.1.15,2013-01-24 09:25:00,
2013-01-24 04:30:00,38.2,29.6,30.02,NNW,346,1.0,1.0,71,0.00,,,0.00,Wunderground v.1.15,2013-01-24 09:30:00,
2013-01-24 04:35:00,38.7,30.1,30.02,NE,44,1.0,1.0,71,0.00,,,0.00,Wunderground v.1.15,2013-01-24 09:35:00,
2013-01-24 04:40:00,38.7,29.8,30.02,North,355,1.0,3.0,70,0.00,,,0.00,Wunderground v.1.15,2013-01-24 09:40:00,
2013-01-24 04:50:00,39.0,30.0,30.02,NNE,28,1.0,1.0,70,0.00,,,0.00,Wunderground v.1.15,2013-01-24 09:50:00,
2013-01-24 04:55:00,39.2,29.9,30.02,West,267,1.0,12.0,69,0.00,,,0.00,Wunderground v.1.15,2013-01-24 09:55:00,
2013-01-24 05:00:00,39.6,29.9,30.02,WNW,299,2.0,2.0,68,0.00,,,0.00,Wunderground v.1.15,2013-01-24 10:00:00,
2013-01-24 05:05:00,39.5,29.8,30.02,West,273,2.0,2.0,68,0.00,,,0.00,Wunderground v.1.15,2013-01-24 10:05:00,
2013-01-24 05:10:00,39.3,29.3,30.03,East,97,0.0,1.0,67,0.00,,,0.00,Wunderground v.1.15,2013-01-24 10:10:00,
2013-01-24 05:15:00,39.1,29.1,30.03,NNW,345,1.0,1.0,67,0.00,,,0.00,Wunderground v.1.15,2013-01-24 10:15:00,
2013-01-24 05:25:00,38.8,28.8,30.03,WNW,288,1.0,1.0,67,0.00,,,0.00,Wunderground v.1.15,2013-01-24 10:25:00,
2013-01-24 05:30:00,38.7,28.7,30.03,North,10,1.0,3.0,67,0.00,,,0.00,Wunderground v.1.15,2013-01-24 10:30:00,
2013-01-24 05:35:00,38.8,28.4,30.03,NW,315,1.0,3.0,66,0.00,,,0.00,Wunderground v.1.15,2013-01-24 10:35:00,
2013-01-24 05:40:00,38.8,28.4,30.03,WNW,286,2.0,2.0,66,0.00,,,0.00,Wunderground v.1.15,2013-01-24 10:40:00,
2013-01-24 05:45:00,38.7,28.3,30.03,WSW,253,1.0,2.0,66,0.00,,,0.00,Wunderground v.1.15,2013-01-24 10:45:00,
2013-01-24 05:55:00,38.4,28.4,30.03,South,188,1.0,3.0,67,0.00,,,0.00,Wunderground v.1.15,2013-01-24 10:55:00,
2013-01-24 06:00:00,38.2,27.8,30.03,South,174,1.0,2.0,66,0.00,,,0.00,Wunderground v.1.15,2013-01-24 11:00:00,
2013-01-24 06:10:00,38.2,28.2,30.03,SW,221,1.0,1.0,67,0.00,,,0.00,Wunderground v.1.15,2013-01-24 11:10:00,
2013-01-24 06:15:00,38.0,28.0,30.03,SSE,149,1.0,2.0,67,0.00,,,0.00,Wunderground v.1.15,2013-01-24 11:15:00,
2013-01-24 06:20:00,38.0,28.0,30.04,WNW,300,1.0,2.0,67,0.00,,,0.00,Wunderground v.1.15,2013-01-24 11:20:00,
2013-01-24 06:25:00,38.0,28.0,30.04,SSE,148,1.0,2.0,67,0.00,,,0.00,Wunderground v.1.15,2013-01-24 11:25:00,
2013-01-24 06:35:00,37.5,27.9,30.05,WSW,238,1.0,7.0,68,0.00,,,0.00,Wunderground v.1.15,2013-01-24 11:35:00,
2013-01-24 06:40:00,37.3,27.7,30.05,North,360,2.0,3.0,68,0.00,,,0.00,Wunderground v.1.15,2013-01-24 11:40:00,
2013-01-24 06:45:00,37.2,27.6,30.06,NNE,23,2.0,3.0,68,0.00,,,0.00,Wunderground v.1.15,2013-01-24 11:45:00,
2013-01-24 06:50:00,37.0,27.8,30.06,SE,138,1.0,1.0,69,0.00,,,0.00,Wunderground v.1.15,2013-01-24 11:50:00,
2013-01-24 06:55:00,36.7,27.5,30.06,SE,139,1.0,1.0,69,0.00,,,0.00,Wunderground v.1.15,2013-01-24 11:55:00,
2013-01-24 07:00:00,36.4,27.2,30.06,SE,144,0.0,6.0,69,0.00,,,0.00,Wunderground v.1.15,2013-01-24 12:00:00,
2013-01-24 07:05:00,36.2,27.0,30.06,WSW,257,1.0,6.0,69,0.00,,,0.00,Wunderground v.1.15,2013-01-24 12:05:00,
2013-01-24 07:10:00,36.0,27.2,30.06,West,276,1.0,6.0,70,0.00,,,0.00,Wunderground v.1.15,2013-01-24 12:10:00,
2013-01-24 07:15:00,35.8,27.0,30.07,South,188,1.0,6.0,70,0.00,,,0.00,Wunderground v.1.15,2013-01-24 12:15:00,
2013-01-24 07:20:00,35.6,26.8,30.07,NW,307,1.0,6.0,70,0.00,,,0.00,Wunderground v.1.15,2013-01-24 12:20:00,
2013-01-24 07:25:00,35.3,26.5,30.07,North,355,1.0,6.0,70,0.00,,,0.00,Wunderground v.1.15,2013-01-24 12:25:00,
2013-01-24 07:35:00,34.9,26.1,30.08,SSE,153,2.0,6.0,70,0.00,,,0.00,Wunderground v.1.15,2013-01-24 12:35:00,
2013-01-24 07:40:00,34.6,25.8,30.08,NW,315,2.0,2.0,70,0.00,,,0.00,Wunderground v.1.15,2013-01-24 12:40:00,
2013-01-24 07:45:00,34.3,25.5,30.09,North,355,1.0,6.0,70,0.00,,,0.00,Wunderground v.1.15,2013-01-24 12:45:00,
2013-01-24 07:50:00,34.1,25.3,30.09,WNW,290,1.0,6.0,70,0.00,,,0.00,Wunderground v.1.15,2013-01-24 12:50:00,
2013-01-24 07:55:00,33.9,24.8,30.09,NNW,328,1.0,6.0,69,0.00,,,0.00,Wunderground v.1.15,2013-01-24 12:55:00,
2013-01-24 08:05:00,33.5,24.4,30.09,SE,137,1.0,6.0,69,0.00,,,0.00,Wunderground v.1.15,2013-01-24 13:05:00,
2013-01-24 08:10:00,33.3,24.2,30.09,West,269,2.0,2.0,69,0.00,,,0.00,Wunderground v.1.15,2013-01-24 13:10:00,
2013-01-24 08:15:00,33.2,23.8,30.10,NE,46,2.0,6.0,68,0.00,,,0.00,Wunderground v.1.15,2013-01-24 13:15:00,
2013-01-24 08:20:00,33.1,23.7,30.10,WSW,257,1.0,1.0,68,0.00,,,0.00,Wunderground v.1.15,2013-01-24 13:20:00,
2013-01-24 08:25:00,33.0,23.2,30.11,ENE,78,1.0,6.0,67,0.00,,,0.00,Wunderground v.1.15,2013-01-24 13:25:00,
2013-01-24 08:30:00,32.9,22.8,30.11,East,80,2.0,6.0,66,0.00,,,0.00,Wunderground v.1.15,2013-01-24 13:30:00,
2013-01-24 08:35:00,32.7,22.6,30.11,SE,133,1.0,6.0,66,0.00,,,0.00,Wunderground v.1.15,2013-01-24 13:35:00,
2013-01-24 08:45:00,32.6,21.8,30.12,WNW,292,2.0,2.0,64,0.00,,,0.00,Wunderground v.1.15,2013-01-24 13:45:00,
2013-01-24 08:50:00,32.5,21.3,30.12,ENE,75,2.0,2.0,63,0.00,,,0.00,Wunderground v.1.15,2013-01-24 13:50:00,
2013-01-24 08:55:00,32.5,21.7,30.13,NW,319,2.0,6.0,64,0.00,,,0.00,Wunderground v.1.15,2013-01-24 13:55:00,
2013-01-24 09:00:00,32.6,21.0,30.14,North,350,2.0,2.0,62,0.00,,,0.00,Wunderground v.1.15,2013-01-24 14:00:00,
2013-01-24 09:10:00,32.6,20.6,30.14,WNW,302,2.0,2.0,61,0.00,,,0.00,Wunderground v.1.15,2013-01-24 14:10:00,
2013-01-24 09:15:00,32.7,20.3,30.14,WSW,250,2.0,2.0,60,0.00,,,0.00,Wunderground v.1.15,2013-01-24 14:15:00,
2013-01-24 09:20:00,32.7,20.3,30.15,WSW,248,1.0,1.0,60,0.00,,,0.00,Wunderground v.1.15,2013-01-24 14:20:00,
2013-01-24 09:25:00,32.8,20.0,30.17,ENE,66,1.0,2.0,59,0.00,,,0.00,Wunderground v.1.15,2013-01-24 14:25:00,
2013-01-24 09:30:00,32.9,19.3,30.17,ESE,104,2.0,5.0,57,0.00,,,0.00,Wunderground v.1.15,2013-01-24 14:30:00,
2013-01-24 09:35:00,32.9,18.5,30.17,North,360,3.0,5.0,55,0.00,,,0.00,Wunderground v.1.15,2013-01-24 14:35:00,
2013-01-24 09:45:00,33.0,18.6,30.17,East,93,2.0,5.0,55,0.00,,,0.00,Wunderground v.1.15,2013-01-24 14:45:00,
2013-01-24 09:50:00,33.1,18.7,30.17,NNW,327,2.0,2.0,55,0.00,,,0.00,Wunderground v.1.15,2013-01-24 14:50:00,
2013-01-24 09:55:00,33.1,18.7,30.18,ENE,61,2.0,2.0,55,0.00,,,0.00,Wunderground v.1.15,2013-01-24 14:55:00,
2013-01-24 10:00:00,33.2,18.3,30.18,SSW,208,1.0,6.0,54,0.00,,,0.00,Wunderground v.1.15,2013-01-24 15:00:00,
2013-01-24 10:05:00,33.3,18.4,30.18,WSW,244,1.0,6.0,54,0.00,,,0.00,Wunderground v.1.15,2013-01-24 15:05:00,
2013-01-24 10:10:00,33.4,17.6,30.18,East,100,1.0,6.0,52,0.00,,,0.00,Wunderground v.1.15,2013-01-24 15:10:00,
2013-01-24 10:20:00,33.6,17.8,30.19,SE,139,1.0,6.0,52,0.00,,,0.00,Wunderground v.1.15,2013-01-24 15:20:00,
2013-01-24 10:25:00,33.7,18.4,30.20,ENE,63,1.0,6.0,53,0.00,,,0.00,Wunderground v.1.15,2013-01-24 15:25:00,
2013-01-24 10:30:00,33.8,18.5,30.20,SSW,197,1.0,6.0,53,0.00,,,0.00,Wunderground v.1.15,2013-01-24 15:30:00,
2013-01-24 10:35:00,33.9,18.6,30.20,SW,215,2.0,6.0,53,0.00,,,0.00,Wunderground v.1.15,2013-01-24 15:35:00,
2013-01-24 10:40:00,33.8,18.5,30.20,WNW,290,2.0,6.0,53,0.00,,,0.00,Wunderground v.1.15,2013-01-24 15:40:00,
2013-01-24 10:50:00,33.8,17.6,30.22,NE,49,2.0,6.0,51,0.00,,,0.00,Wunderground v.1.15,2013-01-24 15:50:00,
2013-01-24 10:55:00,33.8,18.0,30.23,SE,128,2.0,6.0,52,0.00,,,0.00,Wunderground v.1.15,2013-01-24 15:55:00,
2013-01-24 11:00:00,33.9,17.7,30.23,ENE,63,2.0,6.0,51,0.00,,,0.00,Wunderground v.1.15,2013-01-24 16:00:00,
2013-01-24 11:05:00,33.8,18.0,30.23,NW,315,2.0,6.0,52,0.00,,,0.00,Wunderground v.1.15,2013-01-24 16:05:00,
2013-01-24 11:10:00,34.0,18.2,30.24,SE,138,2.0,2.0,52,0.00,,,0.00,Wunderground v.1.15,2013-01-24 16:10:00,
2013-01-24 11:15:00,34.0,17.7,30.24,ESE,112,2.0,6.0,51,0.00,,,0.00,Wunderground v.1.15,2013-01-24 16:15:00,
2013-01-24 11:20:00,33.9,17.2,30.24,SSE,156,3.0,6.0,50,0.00,,,0.00,Wunderground v.1.15,2013-01-24 16:20:00,
2013-01-24 11:25:00,33.8,17.1,30.24,NNE,26,4.0,6.0,50,0.00,,,0.00,Wunderground v.1.15,2013-01-24 16:25:00,
2013-01-24 11:30:00,33.9,17.2,30.24,NE,51,3.0,3.0,50,0.00,,,0.00,Wunderground v.1.15,2013-01-24 16:30:00,
2013-01-24 11:35:00,33.9,16.7,30.25,NW,309,4.0,4.0,49,0.00,,,0.00,Wunderground v.1.15,2013-01-24 16:35:00,
2013-01-24 11:40:00,34.0,15.9,30.26,ENE,76,4.0,6.0,47,0.00,,,0.00,Wunderground v.1.15,2013-01-24 16:40:00,
2013-01-24 11:50:00,34.1,15.5,30.25,ENE,58,3.0,3.0,46,0.00,,,0.00,Wunderground v.1.15,2013-01-24 16:50:00,
2013-01-24 11:55:00,34.1,14.9,30.26,ENE,77,4.0,4.0,45,0.00,,,0.00,Wunderground v.1.15,2013-01-24 16:55:00,
2013-01-24 12:00:00,33.9,14.3,30.26,ENE,63,5.0,5.0,44,0.00,,,0.00,Wunderground v.1.15,2013-01-24 17:00:00,
2013-01-24 12:10:00,34.1,14.4,30.27,NE,40,4.0,4.0,44,0.00,,,0.00,Wunderground v.1.15,2013-01-24 17:10:00,
2013-01-24 12:15:00,34.1,13.9,30.26,ESE,111,3.0,4.0,43,0.00,,,0.00,Wunderground v.1.15,2013-01-24 17:15:00,
2013-01-24 12:25:00,34.3,14.1,30.26,East,100,3.0,7.0,43,0.00,,,0.00,Wunderground v.1.15,2013-01-24 17:25:00,
2013-01-24 12:30:00,34.4,14.2,30.27,SE,135,4.0,4.0,43,0.00,,,0.00,Wunderground v.1.15,2013-01-24 17:30:00,
2013-01-24 12:35:00,34.7,13.4,30.27,SSE,168,3.0,4.0,41,0.00,,,0.00,Wunderground v.1.15,2013-01-24 17:35:00,
2013-01-24 12:40:00,34.7,13.4,30.26,WSW,257,3.0,3.0,41,0.00,,,0.00,Wunderground v.1.15,2013-01-24 17:40:00,
2013-01-24 12:45:00,34.9,14.1,30.27,NNW,340,3.0,3.0,42,0.00,,,0.00,Wunderground v.1.15,2013-01-24 17:45:00,
2013-01-24 12:50:00,34.9,13.5,30.27,SE,143,3.0,4.0,41,0.00,,,0.00,Wunderground v.1.15,2013-01-24 17:50:00,
2013-01-24 13:00:00,35.0,13.1,30.27,North,5,2.0,2.0,40,0.00,,,0.00,Wunderground v.1.15,2013-01-24 18:00:00,
2013-01-24 13:05:00,35.0,12.5,30.27,NE,42,2.0,10.0,39,0.00,,,0.00,Wunderground v.1.15,2013-01-24 18:05:00,
2013-01-24 13:10:00,35.1,12.6,30.27,ENE,65,2.0,2.0,39,0.00,,,0.00,Wunderground v.1.15,2013-01-24 18:10:00,
2013-01-24 13:15:00,35.3,13.9,30.27,SE,133,2.0,10.0,41,0.00,,,0.00,Wunderground v.1.15,2013-01-24 18:15:00,
2013-01-24 13:20:00,35.2,13.3,30.27,NW,306,2.0,2.0,40,0.00,,,0.00,Wunderground v.1.15,2013-01-24 18:20:00,
2013-01-24 13:30:00,35.3,12.8,30.27,ESE,103,3.0,3.0,39,0.00,,,0.00,Wunderground v.1.15,2013-01-24 18:30:00,
2013-01-24 13:35:00,35.4,12.9,30.27,East,89,2.0,10.0,39,0.00,,,0.00,Wunderground v.1.15,2013-01-24 18:35:00,
2013-01-24 13:40:00,35.6,13.0,30.27,NNE,32,2.0,2.0,39,0.00,,,0.00,Wunderground v.1.15,2013-01-24 18:40:00,
2013-01-24 13:45:00,35.9,13.9,30.28,SE,127,2.0,10.0,40,0.00,,,0.00,Wunderground v.1.15,2013-01-24 18:45:00,
2013-01-24 13:50:00,35.9,12.1,30.28,East,84,2.0,10.0,37,0.00,,,0.00,Wunderground v.1.15,2013-01-24 18:50:00,
2013-01-24 13:55:00,35.7,11.9,30.28,North,355,2.0,10.0,37,0.00,,,0.00,Wunderground v.1.15,2013-01-24 18:55:00,
2013-01-24 14:05:00,35.6,11.9,30.28,ENE,70,2.0,10.0,37,0.00,,,0.00,Wunderground v.1.15,2013-01-24 19:05:00,
2013-01-24 14:10:00,35.7,12.5,30.28,NE,41,2.0,10.0,38,0.00,,,0.00,Wunderground v.1.15,2013-01-24 19:10:00,
2013-01-24 14:15:00,35.8,11.4,30.28,ENE,74,3.0,10.0,36,0.00,,,0.00,Wunderground v.1.15,2013-01-24 19:15:00,
2013-01-24 14:20:00,35.9,10.2,30.28,SSW,194,2.0,2.0,34,0.00,,,0.00,Wunderground v.1.15,2013-01-24 19:20:00,
2013-01-24 14:25:00,36.3,10.6,30.28,SE,139,2.0,10.0,34,0.00,,,0.00,Wunderground v.1.15,2013-01-24 19:25:00,
2013-01-24 14:35:00,36.4,9.3,30.28,East,92,2.0,10.0,32,0.00,,,0.00,Wunderground v.1.15,2013-01-24 19:35:00,
2013-01-24 14:40:00,36.2,9.1,30.29,SSE,167,3.0,3.0,32,0.00,,,0.00,Wunderground v.1.15,2013-01-24 19:40:00,
2013-01-24 14:45:00,36.2,10.5,30.28,ENE,67,3.0,10.0,34,0.00,,,0.00,Wunderground v.1.15,2013-01-24 19:45:00,
2013-01-24 14:50:00,36.2,9.8,30.29,NE,44,2.0,2.0,33,0.00,,,0.00,Wunderground v.1.15,2013-01-24 19:50:00,
2013-01-24 14:55:00,36.3,9.2,30.29,ENE,76,2.0,3.0,32,0.00,,,0.00,Wunderground v.1.15,2013-01-24 19:55:00,
2013-01-24 15:00:00,36.2,9.1,30.30,ENE,76,2.0,5.0,32,0.00,,,0.00,Wunderground v.1.15,2013-01-24 20:00:00,
2013-01-24 15:10:00,36.0,8.9,30.30,NE,42,2.0,4.0,32,0.00,,,0.00,Wunderground v.1.15,2013-01-24 20:10:00,
2013-01-24 15:15:00,35.9,8.9,30.29,NNW,335,3.0,4.0,32,0.00,,,0.00,Wunderground v.1.15,2013-01-24 20:15:00,
2013-01-24 15:20:00,35.8,8.1,30.29,ENE,61,3.0,3.0,31,0.00,,,0.00,Wunderground v.1.15,2013-01-24 20:20:00,
2013-01-24 15:25:00,35.9,8.9,30.30,NE,49,3.0,3.0,32,0.00,,,0.00,Wunderground v.1.15,2013-01-24 20:25:00,
2013-01-24 15:30:00,36.0,7.5,30.29,NE,39,3.0,3.0,30,0.00,,,0.00,Wunderground v.1.15,2013-01-24 20:30:00,
2013-01-24 15:40:00,36.1,6.1,30.30,NNE,29,3.0,5.0,28,0.00,,,0.00,Wunderground v.1.15,2013-01-24 20:40:00,
2013-01-24 15:45:00,36.0,5.2,30.29,ENE,59,4.0,5.0,27,0.00,,,0.00,Wunderground v.1.15,2013-01-24 20:45:00,
2013-01-24 15:50:00,35.9,5.1,30.30,ENE,66,4.0,4.0,27,0.00,,,0.00,Wunderground v.1.15,2013-01-24 20:50:00,
2013-01-24 15:55:00,35.6,4.8,30.30,ESE,117,4.0,4.0,27,0.00,,,0.00,Wunderground v.1.15,2013-01-24 20:55:00,
2013-01-24 16:00:00,35.3,4.6,30.30,ESE,113,4.0,9.0,27,0.00,,,0.00,Wunderground v.1.15,2013-01-24 21:00:00,
2013-01-24 16:05:00,35.2,4.5,30.30,ENE,69,4.0,9.0,27,0.00,,,0.00,Wunderground v.1.15,2013-01-24 21:05:00,
2013-01-24 16:10:00,35.1,4.4,30.30,ENE,74,3.0,3.0,27,0.00,,,0.00,Wunderground v.1.15,2013-01-24 21:10:00,
2013-01-24 16:15:00,35.1,3.6,30.30,NE,38,2.0,9.0,26,0.00,,,0.00,Wunderground v.1.15,2013-01-24 21:15:00,
2013-01-24 16:25:00,35.0,3.5,30.31,ESE,117,2.0,5.0,26,0.00,,,0.00,Wunderground v.1.15,2013-01-24 21:25:00,
2013-01-24 16:30:00,34.8,2.5,30.32,ENE,75,3.0,3.0,25,0.00,,,0.00,Wunderground v.1.15,2013-01-24 21:30:00,
2013-01-24 16:35:00,34.8,3.3,30.32,ENE,75,1.0,9.0,26,0.00,,,0.00,Wunderground v.1.15,2013-01-24 21:35:00,
2013-01-24 16:40:00,34.7,3.2,30.32,NE,49,0.0,9.0,26,0.00,,,0.00,Wunderground v.1.15,2013-01-24 21:40:00,
2013-01-24 16:45:00,34.6,4.0,30.33,NE,53,0.0,9.0,27,0.00,,,0.00,Wunderground v.1.15,2013-01-24 21:45:00,
2013-01-24 16:50:00,34.6,3.2,30.32,NE,53,0.0,9.0,26,0.00,,,0.00,Wunderground v.1.15,2013-01-24 21:50:00,
2013-01-24 16:55:00,34.4,3.8,30.32,NE,34,0.0,9.0,27,0.00,,,0.00,Wunderground v.1.15,2013-01-24 21:55:00,
2013-01-24 17:00:00,34.4,2.1,30.32,ESE,105,1.0,1.0,25,0.00,,,0.00,Wunderground v.1.15,2013-01-24 22:00:00,
2013-01-24 17:05:00,34.4,3.8,30.32,ESE,120,1.0,9.0,27,0.00,,,0.00,Wunderground v.1.15,2013-01-24 22:05:00,
2013-01-24 17:15:00,34.6,5.5,30.32,ESE,120,0.0,9.0,29,0.00,,,0.00,Wunderground v.1.15,2013-01-24 22:15:00,
2013-01-24 17:20:00,34.5,6.9,30.32,East,91,0.0,9.0,31,0.00,,,0.00,Wunderground v.1.15,2013-01-24 22:20:00,
2013-01-24 17:25:00,34.4,5.4,30.32,East,91,0.0,9.0,29,0.00,,,0.00,Wunderground v.1.15,2013-01-24 22:25:00,
2013-01-24 17:30:00,34.2,5.2,30.33,East,91,0.0,9.0,29,0.00,,,0.00,Wunderground v.1.15,2013-01-24 22:30:00,
2013-01-24 17:35:00,34.1,5.1,30.33,ENE,68,0.0,9.0,29,0.00,,,0.00,Wunderground v.1.15,2013-01-24 22:35:00,
2013-01-24 17:40:00,33.8,10.2,30.33,ENE,68,0.0,9.0,37,0.00,,,0.00,Wunderground v.1.15,2013-01-24 22:40:00,
2013-01-24 17:50:00,33.2,7.2,30.33,ENE,69,0.0,9.0,33,0.00,,,0.00,Wunderground v.1.15,2013-01-24 22:50:00,
2013-01-24 17:55:00,32.9,8.2,30.33,ENE,69,0.0,9.0,35,0.00,,,0.00,Wunderground v.1.15,2013-01-24 22:55:00,
2013-01-24 18:00:00,32.4,10.7,30.34,East,81,0.0,1.0,40,0.00,,,0.00,Wunderground v.1.15,2013-01-24 23:00:00,
2013-01-24 18:10:00,31.7,7.7,30.35,East,81,0.0,0.0,36,0.00,,,0.00,Wunderground v.1.15,2013-01-24 23:10:00,
2013-01-24 18:20:00,31.2,7.9,30.35,East,81,0.0,0.0,37,0.00,,,0.00,Wunderground v.1.15,2013-01-24 23:20:00,
2013-01-24 18:25:00,30.9,8.2,30.35,East,82,0.0,0.0,38,0.00,,,0.00,Wunderground v.1.15,2013-01-24 23:25:00,
2013-01-24 18:30:00,30.7,9.7,30.35,East,81,0.0,0.0,41,0.00,,,0.00,Wunderground v.1.15,2013-01-24 23:30:00,
2013-01-24 18:35:00,30.4,8.9,30.36,East,81,0.0,0.0,40,0.00,,,0.00,Wunderground v.1.15,2013-01-24 23:35:00,
2013-01-24 18:40:00,30.1,9.2,30.36,East,81,0.0,0.0,41,0.00,,,0.00,Wunderground v.1.15,2013-01-24 23:40:00,
2013-01-24 18:45:00,29.8,8.9,30.36,East,81,0.0,0.0,41,0.00,,,0.00,Wunderground v.1.15,2013-01-24 23:45:00,
2013-01-24 18:55:00,29.2,9.4,30.37,East,81,0.0,0.0,43,0.00,,,0.00,Wunderground v.1.15,2013-01-24 23:55:00,
2013-01-24 19:00:00,28.9,9.2,30.37,East,81,0.0,0.0,43,0.00,,,0.00,Wunderground v.1.15,2013-01-25 00:00:00,
2013-01-24 19:05:00,28.6,9.9,30.37,East,82,0.0,0.0,45,0.00,,,0.00,Wunderground v.1.15,2013-01-25 00:05:00,
2013-01-24 19:10:00,28.3,11.1,30.37,East,81,0.0,0.0,48,0.00,,,0.00,Wunderground v.1.15,2013-01-25 00:10:00,
2013-01-24 19:15:00,28.1,11.4,30.37,East,81,0.0,0.0,49,0.00,,,0.00,Wunderground v.1.15,2013-01-25 00:15:00,
2013-01-24 19:25:00,27.8,12.9,30.38,East,81,0.0,0.0,53,0.00,,,0.00,Wunderground v.1.15,2013-01-25 00:25:00,
2013-01-24 19:30:00,27.6,12.2,30.38,East,81,0.0,0.0,52,0.00,,,0.00,Wunderground v.1.15,2013-01-25 00:30:00,
2013-01-24 19:35:00,27.4,11.2,30.38,East,81,0.0,0.0,50,0.00,,,0.00,Wunderground v.1.15,2013-01-25 00:35:00,
2013-01-24 19:40:00,27.2,11.4,30.38,East,81,0.0,0.0,51,0.00,,,0.00,Wunderground v.1.15,2013-01-25 00:40:00,
2013-01-24 19:45:00,27.2,12.7,30.38,East,81,0.0,0.0,54,0.00,,,0.00,Wunderground v.1.15,2013-01-25 00:45:00,
2013-01-24 19:50:00,27.1,12.2,30.38,East,81,0.0,0.0,53,0.00,,,0.00,Wunderground v.1.15,2013-01-25 00:50:00,
2013-01-24 20:00:00,26.9,11.2,30.38,East,81,0.0,0.0,51,0.00,,,0.00,Wunderground v.1.15,2013-01-25 01:00:00,
2013-01-24 20:05:00,26.9,10.7,30.38,East,81,0.0,0.0,50,0.00,,,0.00,Wunderground v.1.15,2013-01-25 01:05:00,
2013-01-24 20:10:00,26.7,11.0,30.38,East,81,0.0,0.0,51,0.00,,,0.00,Wunderground v.1.15,2013-01-25 01:10:00,
2013-01-24 20:15:00,26.6,12.6,30.38,East,81,0.0,1.0,55,0.00,,,0.00,Wunderground v.1.15,2013-01-25 01:15:00,
2013-01-24 20:20:00,26.5,11.7,30.38,East,81,0.0,0.0,53,0.00,,,0.00,Wunderground v.1.15,2013-01-25 01:20:00,
2013-01-24 20:30:00,26.3,11.5,30.39,East,81,0.0,0.0,53,0.00,,,0.00,Wunderground v.1.15,2013-01-25 01:30:00,
2013-01-24 20:35:00,26.3,11.9,30.39,East,81,0.0,0.0,54,0.00,,,0.00,Wunderground v.1.15,2013-01-25 01:35:00,
2013-01-24 20:40:00,26.2,11.8,30.39,East,81,0.0,0.0,54,0.00,,,0.00,Wunderground v.1.15,2013-01-25 01:40:00,
2013-01-24 20:45:00,26.1,12.1,30.40,East,81,0.0,0.0,55,0.00,,,0.00,Wunderground v.1.15,2013-01-25 01:45:00,
2013-01-24 20:50:00,26.1,11.7,30.39,East,81,0.0,0.0,54,0.00,,,0.00,Wunderground v.1.15,2013-01-25 01:50:00,
2013-01-24 20:55:00,26.1,11.7,30.40,NE,49,0.0,1.0,54,0.00,,,0.00,Wunderground v.1.15,2013-01-25 01:55:00,
2013-01-24 21:00:00,26.0,11.2,30.40,NE,50,0.0,0.0,53,0.00,,,0.00,Wunderground v.1.15,2013-01-25 02:00:00,
2013-01-24 21:10:00,25.9,11.1,30.40,NE,50,0.0,0.0,53,0.00,,,0.00,Wunderground v.1.15,2013-01-25 02:10:00,
2013-01-24 21:15:00,25.8,11.8,30.40,NE,49,0.0,0.0,55,0.00,,,0.00,Wunderground v.1.15,2013-01-25 02:15:00,
2013-01-24 21:20:00,25.7,12.2,30.40,NE,49,0.0,0.0,56,0.00,,,0.00,Wunderground v.1.15,2013-01-25 02:20:00,
2013-01-24 21:25:00,25.7,11.3,30.40,NE,50,0.0,0.0,54,0.00,,,0.00,Wunderground v.1.15,2013-01-25 02:25:00,
2013-01-24 21:30:00,25.6,11.7,30.40,NE,49,0.0,0.0,55,0.00,,,0.00,Wunderground v.1.15,2013-01-25 02:30:00,
2013-01-24 21:35:00,25.5,11.6,30.41,NE,50,0.0,0.0,55,0.00,,,0.00,Wunderground v.1.15,2013-01-25 02:35:00,
2013-01-24 21:40:00,25.4,11.5,30.41,NE,49,0.0,0.0,55,0.00,,,0.00,Wunderground v.1.15,2013-01-25 02:40:00,
2013-01-24 21:45:00,25.3,11.4,30.42,NE,50,0.0,0.0,55,0.00,,,0.00,Wunderground v.1.15,2013-01-25 02:45:00,
2013-01-24 21:50:00,25.1,11.2,30.41,NE,50,0.0,0.0,55,0.00,,,0.00,Wunderground v.1.15,2013-01-25 02:50:00,
2013-01-24 21:55:00,25.0,11.1,30.41,NE,50,0.0,0.0,55,0.00,,,0.00,Wunderground v.1.15,2013-01-25 02:55:00,
2013-01-24 22:05:00,24.7,10.0,30.41,North,5,0.0,2.0,53,0.00,,,0.00,Wunderground v.1.15,2013-01-25 03:05:00,
2013-01-24 22:10:00,24.6,10.3,30.42,North,5,0.0,2.0,54,0.00,,,0.00,Wunderground v.1.15,2013-01-25 03:10:00,
2013-01-24 22:15:00,24.5,9.8,30.42,WNW,298,0.0,2.0,53,0.00,,,0.00,Wunderground v.1.15,2013-01-25 03:15:00,
2013-01-24 22:20:00,24.4,10.1,30.42,WNW,298,0.0,2.0,54,0.00,,,0.00,Wunderground v.1.15,2013-01-25 03:20:00,
2013-01-24 22:25:00,24.3,9.6,30.42,WNW,298,0.0,2.0,53,0.00,,,0.00,Wunderground v.1.15,2013-01-25 03:25:00,
2013-01-24 22:30:00,24.1,9.4,30.43,WNW,298,0.0,2.0,53,0.00,,,0.00,Wunderground v.1.15,2013-01-25 03:30:00,
2013-01-24 22:40:00,23.8,9.6,30.42,WNW,298,0.0,2.0,54,0.00,,,0.00,Wunderground v.1.15,2013-01-25 03:40:00,
2013-01-24 22:45:00,23.6,8.5,30.42,WNW,298,1.0,2.0,52,0.00,,,0.00,Wunderground v.1.15,2013-01-25 03:45:00,
2013-01-24 22:50:00,23.5,8.0,30.43,NNW,340,1.0,1.0,51,0.00,,,0.00,Wunderground v.1.15,2013-01-25 03:50:00,
2013-01-24 22:55:00,23.4,8.3,30.44,NNW,340,0.0,2.0,52,0.00,,,0.00,Wunderground v.1.15,2013-01-25 03:55:00,
2013-01-24 23:00:00,23.3,8.2,30.44,NNW,340,0.0,2.0,52,0.00,,,0.00,Wunderground v.1.15,2013-01-25 04:00:00,
2013-01-24 23:10:00,23.0,8.4,30.44,NNW,340,0.0,2.0,53,0.00,,,0.00,Wunderground v.1.15,2013-01-25 04:10:00,
2013-01-24 23:15:00,22.9,8.7,30.44,NNW,346,0.0,2.0,54,0.00,,,0.00,Wunderground v.1.15,2013-01-25 04:15:00,
2013-01-24 23:20:00,22.7,8.5,30.44,NNW,346,0.0,2.0,54,0.00,,,0.00,Wunderground v.1.15,2013-01-25 04:20:00,
2013-01-24 23:25:00,22.6,8.4,30.44,NNW,346,0.0,2.0,54,0.00,,,0.00,Wunderground v.1.15,2013-01-25 04:25:00,
2013-01-24 23:30:00,22.5,7.9,30.44,NNW,346,0.0,2.0,53,0.00,,,0.00,Wunderground v.1.15,2013-01-25 04:30:00,
2013-01-24 23:35:00,22.4,7.4,30.44,NNW,346,0.0,2.0,52,0.00,,,0.00,Wunderground v.1.15,2013-01-25 04:35:00,
2013-01-24 23:45:00,22.3,7.3,30.44,NNW,329,0.0,2.0,52,0.00,,,0.00,Wunderground v.1.15,2013-01-25 04:45:00,
2013-01-24 23:50:00,22.2,8.1,30.44,NNW,333,0.0,2.0,54,0.00,,,0.00,Wunderground v.1.15,2013-01-25 04:50:00,
2013-01-24 23:55:00,22.2,8.1,30.45,NNW,333,0.0,2.0,54,0.00,,,0.00,Wunderground v.1.15,2013-01-25 04:55:00,